Weather History for Crane Lake, MN

Change the Weather History Date:

Monday, March 25, 2013

  Actual Average Record
Temperature  
Mean Temperature 16 °F -  
Max Temperature 39 °F 37 °F 60 °F (2004)
Min Temperature -7 °F 17 °F -11 °F (2014)
Degree Days  
Heating Degree Days 49    
Moisture  
Dew Point 8 °F    
Average Humidity 67    
Maximum Humidity 92    
Minimum Humidity 41    
Precipitation  
Precipitation 0.00 in - - ()
Sea Level Pressure  
Sea Level Pressure 30.17 in    
Wind  
Wind Speed 1 mph (NNW)    
Max Wind Speed 9 mph    
Max Gust Speed -    
Visibility 10 miles    
Events      
Averages and records for this station are not official NWS values.
T = Trace of Precipitation, MM = Missing Value Source: NWS Daily Summary

Daily Weather History Graph

Daily Weather History Graph

Search for Another Location

Airport:

Trip Planner

Search our weather history database for the weather conditions in past years. The results will help you decide how hot, cold, wet, or windy it might be!

Date:

Astronomy

Mar. 25, 2013 Rise Set
Actual Time 7:01 AM CDT 7:30 PM CDT
Civil Twilight 6:30 AM CDT 8:01 PM CDT
Nautical Twilight 5:53 AM CDT 8:39 PM CDT
Astronomical Twilight 5:15 AM CDT 9:17 PM CDT
Moon 5:58 PM CDT (3/25) 5:52 AM CDT (3/25)
Length of Visible Light 13h 31m
Length of Day
12h 28m
Waxing Gibbous, 96% of the Moon is Illuminated
Mar 25
Waxing Gibbous
Mar 27
Full
Apr 2
Last Quarter
Apr 10
New
Apr 18
First Quarter

Hourly Weather History & Observations

Time (CDT) Temp. Windchill Dew Point Humidity Pressure Visibility Wind Dir Wind Speed Gust Speed Precip Events Conditions
12:07 AM 5.0 °F - -0.4 °F 78% 30.13 in 10.0 mi Calm Calm - N/A   Clear
12:27 AM 3.2 °F - -0.4 °F 85% 30.13 in 10.0 mi Calm Calm - N/A   Clear
12:47 AM 3.2 °F - -0.4 °F 85% 30.13 in 10.0 mi Calm Calm - N/A   Clear
1:07 AM 1.4 °F - -2.2 °F 85% 30.13 in 10.0 mi Calm Calm - N/A   Clear
1:27 AM 1.4 °F - -2.2 °F 85% 30.13 in 10.0 mi Calm Calm - N/A   Clear
1:47 AM 1.4 °F - -4.0 °F 78% 30.13 in 10.0 mi Calm Calm - N/A   Clear
2:07 AM -0.4 °F - -4.0 °F 85% 30.13 in 10.0 mi Calm Calm - N/A   Clear
2:27 AM -0.4 °F - -5.8 °F 78% 30.13 in 10.0 mi Calm Calm - N/A   Clear
2:47 AM -0.4 °F - -5.8 °F 78% 30.13 in 10.0 mi Calm Calm - N/A   Clear
3:07 AM -2.2 °F - -5.8 °F 85% 30.13 in 10.0 mi Calm Calm - N/A   Clear
3:27 AM -2.2 °F - -5.8 °F 85% 30.13 in 10.0 mi Calm Calm - N/A   Clear
3:47 AM -2.2 °F - -7.6 °F 78% 30.13 in 10.0 mi Calm Calm - N/A   Clear
4:07 AM -2.2 °F - -7.6 °F 78% 30.13 in 10.0 mi Calm Calm - N/A   Clear
4:27 AM -4.0 °F - -7.6 °F 85% 30.13 in 10.0 mi Calm Calm - N/A   Clear
4:47 AM -4.0 °F - -9.4 °F 78% 30.13 in 10.0 mi Calm Calm - N/A   Clear
5:07 AM -5.8 °F - -9.4 °F 84% - 10.0 mi Calm Calm - N/A   Clear
5:27 AM -5.8 °F - -9.4 °F 84% 30.14 in - Calm Calm - N/A   Clear
5:47 AM -5.8 °F - -9.4 °F 84% 30.15 in 10.0 mi Calm Calm - N/A   Clear
6:08 AM -7.6 °F - -11.2 °F 84% 30.15 in 10.0 mi Calm Calm - N/A   Clear
6:28 AM -7.6 °F - -11.2 °F 84% 30.16 in 10.0 mi Calm Calm - N/A   Clear
6:47 AM -7.6 °F - -11.2 °F 84% 30.17 in 10.0 mi Calm Calm - N/A   Clear
7:07 AM -7.6 °F - -11.2 °F 84% 30.17 in 10.0 mi Calm Calm - N/A   Clear
7:27 AM -7.6 °F - -11.2 °F 84% 30.18 in 10.0 mi Calm Calm - N/A   Clear
7:47 AM -7.6 °F - -9.4 °F 92% 30.18 in 10.0 mi Calm Calm - N/A   Clear
8:07 AM -5.8 °F - -7.6 °F 92% 30.18 in 10.0 mi Calm Calm - N/A   Clear
8:27 AM -0.4 °F - -2.2 °F 92% 30.19 in 10.0 mi Calm Calm - N/A   Clear
8:47 AM 6.8 °F - 1.4 °F 79% 30.19 in 10.0 mi Calm Calm - N/A   Clear
9:07 AM 14.0 °F - 10.4 °F 86% 30.19 in 10.0 mi Calm Calm - N/A   Clear
9:27 AM 19.4 °F 14.3 °F 15.8 °F 86% 30.19 in 10.0 mi NW 3.5 mph - N/A   Clear
9:47 AM 23.0 °F - 17.6 °F 80% 30.19 in 10.0 mi Calm Calm - N/A   Clear
10:07 AM 26.6 °F - 19.4 °F 74% 30.19 in 10.0 mi Calm Calm - N/A   Clear
10:27 AM 30.2 °F - 21.2 °F 69% 30.18 in 10.0 mi Calm Calm - N/A   Clear
10:48 AM 32.0 °F - 21.2 °F 64% - 10.0 mi Calm Calm - N/A   Clear
11:07 AM 33.8 °F - 21.2 °F 60% 30.18 in 10.0 mi North - - N/A   Clear
11:27 AM 33.8 °F 27.7 °F 19.4 °F 56% 30.18 in 10.0 mi NNW 6.9 mph - N/A   Clear
11:47 AM 33.8 °F 26.4 °F 17.6 °F 52% 30.18 in 10.0 mi North 9.2 mph - N/A   Clear
12:07 PM 33.8 °F 27.7 °F 17.6 °F 52% 30.18 in 10.0 mi NNW 6.9 mph - N/A   Clear
12:28 PM 33.8 °F 27.7 °F 17.6 °F 52% 30.18 in 10.0 mi NNW 6.9 mph - N/A   Clear
12:47 PM 35.6 °F 30.7 °F 17.6 °F 48% 30.18 in 10.0 mi North 5.8 mph - N/A   Clear
1:07 PM 35.6 °F 29.2 °F 17.6 °F 48% 30.17 in 10.0 mi North 8.1 mph - N/A   Clear
1:27 PM 37.4 °F 31.4 °F 17.6 °F 45% 30.17 in 10.0 mi NNW 8.1 mph - N/A   Clear
1:47 PM 37.4 °F 33.8 °F 17.6 °F 45% 30.17 in 10.0 mi North 4.6 mph - N/A   Clear
2:07 PM 37.4 °F 32.8 °F 15.8 °F 41% 30.17 in 10.0 mi NNW 5.8 mph - N/A   Clear
2:28 PM 39.2 °F 33.6 °F 17.6 °F 42% 30.16 in 10.0 mi North 8.1 mph - N/A   Scattered Clouds
2:47 PM 39.2 °F 33.6 °F 17.6 °F 42% 30.15 in 10.0 mi North 8.1 mph - N/A   Clear
3:07 PM 39.2 °F 35.0 °F 17.6 °F 42% 30.15 in 10.0 mi North 5.8 mph - N/A   Scattered Clouds
3:27 PM 39.2 °F 33.0 °F 17.6 °F 42% 30.15 in 10.0 mi North 9.2 mph - N/A   Scattered Clouds
3:47 PM 39.2 °F 33.6 °F 19.4 °F 45% 30.15 in 10.0 mi NNW 8.1 mph - N/A   Clear
4:07 PM 39.2 °F 35.0 °F 19.4 °F 45% 30.15 in 10.0 mi North 5.8 mph - N/A   Scattered Clouds
4:27 PM 37.4 °F 30.8 °F 17.6 °F 45% 30.15 in 10.0 mi NW 9.2 mph - N/A   Mostly Cloudy
4:47 PM 37.4 °F 32.8 °F 17.6 °F 45% 30.15 in 10.0 mi NNW 5.8 mph - N/A   Overcast
5:07 PM 35.6 °F 32.8 °F 17.6 °F 48% 30.16 in 10.0 mi North 3.5 mph - N/A   Overcast
5:27 PM 35.6 °F 30.7 °F 17.6 °F 48% 30.16 in 10.0 mi North 5.8 mph - N/A   Overcast
5:47 PM 35.6 °F 29.2 °F 17.6 °F 48% 30.16 in 10.0 mi NNW 8.1 mph - N/A   Overcast
6:07 PM 33.8 °F - 17.6 °F 52% 30.16 in 10.0 mi Calm Calm - N/A   Overcast
6:27 PM 33.8 °F 29.6 °F 17.6 °F 52% 30.17 in 10.0 mi NNW 4.6 mph - N/A   Mostly Cloudy
6:47 PM 33.8 °F 30.8 °F 17.6 °F 52% 30.17 in 10.0 mi NNW 3.5 mph - N/A   Mostly Cloudy
7:07 PM 32.0 °F 28.7 °F 15.8 °F 51% 30.17 in 10.0 mi NW 3.5 mph - N/A   Mostly Cloudy
7:27 PM 28.4 °F - 14.0 °F 55% 30.18 in 10.0 mi Calm Calm - N/A   Mostly Cloudy
7:47 PM 26.6 °F - 14.0 °F 59% 30.18 in 10.0 mi Calm Calm - N/A   Overcast
8:07 PM 26.6 °F - 14.0 °F 59% 30.19 in 10.0 mi Calm Calm - N/A   Overcast
8:27 PM 28.4 °F 23.3 °F 17.6 °F 64% 30.20 in 10.0 mi North 4.6 mph - N/A   Overcast
8:47 PM 28.4 °F - 17.6 °F 64% 30.21 in 10.0 mi Calm Calm - N/A   Overcast
9:07 PM 28.4 °F - 15.8 °F 59% 30.21 in 10.0 mi Calm Calm - N/A   Mostly Cloudy
9:27 PM 24.8 °F - 14.0 °F 64% 30.22 in 10.0 mi Calm Calm - N/A   Scattered Clouds
9:47 PM 23.0 °F - 12.2 °F 63% 30.22 in 10.0 mi Calm Calm - N/A   Mostly Cloudy
10:07 PM 24.8 °F - 14.0 °F 64% 30.22 in 10.0 mi Calm Calm - N/A   Overcast
10:27 PM 24.8 °F - 15.8 °F 69% 30.22 in 10.0 mi Calm Calm - N/A   Overcast
10:47 PM 24.8 °F - 15.8 °F 69% 30.22 in 10.0 mi Calm Calm - N/A   Overcast
11:07 PM 24.8 °F - 15.8 °F 69% 30.22 in 10.0 mi Calm Calm - N/A   Overcast
11:27 PM 24.8 °F - 15.8 °F 69% 30.22 in 10.0 mi Calm Calm - N/A   Overcast
11:47 PM 24.8 °F - 15.8 °F 69% 30.22 in 10.0 mi Calm Calm - N/A   Overcast